• MPC Preparation (Info)

  • MPEC 2023-G78 : 2023 GG1

    The following Minor Planet Electronic Circular may be linked-to from your own Web pages, but must not otherwise be redistributed electronically.

    A form allowing access to any MPEC is at the bottom of this page.


    Read MPEC 2023-G77 Read MPEC 2023-G79


    M.P.E.C. 2023-G78                                Issued 2023 April 14, 10:27 UT
    
         The Minor Planet Electronic Circulars contain information on unusual
             minor planets, routine data on comets and natural satellites,
             and occasional editorial announcements.  They are published
        on behalf of Division F of the International Astronomical Union by the
              Minor Planet Center, Smithsonian Astrophysical Observatory,
                              Cambridge, MA 02138, U.S.A.
    			  
                 Prepared using the Tamkin Foundation Computer Network
    
                                  MPC@CFA.HARVARD.EDU
                URL https://www.minorplanetcenter.net/    ISSN 1523-6714
    
                                    2023 GG1                                 
    
    
    Observations:
         K23G01G*1C2023 04 12.39838314 38 37.072+24 52 35.83         20.85GVEG078G96
         K23G01G 1C2023 04 12.40407114 38 35.678+24 52 16.64         20.77GVEG078G96
         K23G01G 1C2023 04 12.40975314 38 34.314+24 51 57.60         20.87GVEG078G96
         K23G01G 1C2023 04 12.41546114 38 32.899+24 51 38.45         20.69GVEG078G96
         K23G01G KC2023 04 12.47021714 38 19.468+24 48 29.84         21.27GVEG078I52
         K23G01G KC2023 04 12.47145614 38 19.194+24 48 25.49         20.82GVEG078I52
         K23G01G KC2023 04 12.47269414 38 18.863+24 48 21.49         20.58GVEG078I52
         K23G01G KC2023 04 12.47393314 38 18.532+24 48 17.14         21.08GVEG078I52
         K23G01G  C2023 04 12.47835614 38 17.290+24 47 57.70         20.8 GVEG078H01
         K23G01G  C2023 04 12.48161714 38 16.508+24 47 46.39         21.4 GVEG078H01
         K23G01G  C2023 04 12.48685614 38 15.257+24 47 27.82         20.7 GVEG078H01
         K23G01G  C2023 04 12.48977814 38 14.562+24 47 17.73         21.6 GVEG078H01
         K23G01G KC2023 04 13.20941 14 35 42.51 +24 04 44.2          20.4 VqEG078H36
         K23G01G KC2023 04 13.21669614 35 40.04 +24 04 18.2          20.9 VuEG078H21
         K23G01G KC2023 04 13.21950 14 35 39.88 +24 04 07.0          20.8 VqEG078H36
         K23G01G KC2023 04 13.22228914 35 38.53 +24 03 58.0          20.9 VuEG078H21
         K23G01G KC2023 04 13.22508614 35 37.74 +24 03 47.6          21.1 VuEG078H21
         K23G01G KC2023 04 13.22638114 35 39.700+24 03 48.28         20.20GVEG078I52
         K23G01G KC2023 04 13.22808514 35 39.296+24 03 40.97         20.91GVEG078I52
         K23G01G KC2023 04 13.22957 14 35 37.24 +24 03 30.4          20.9 VqEG078H36
         K23G01G KC2023 04 13.22978314 35 38.900+24 03 34.42         20.53GVEG078I52
         K23G01G KC2023 04 14.21972714 31 32.941+22 56 37.28         20.79GVEG078I52
         K23G01G KC2023 04 14.22109214 31 32.549+22 56 32.32         20.51GVEG078I52
         K23G01G KC2023 04 14.22245714 31 32.178+22 56 26.09         20.94GVEG078I52
         K23G01G KC2023 04 14.23134 14 31 27.80 +22 55 42.9          20.8 VqEG078734
         K23G01G KC2023 04 14.24265 14 31 24.51 +22 54 54.7          20.9 VqEG078734
         K23G01G KC2023 04 14.25377 14 31 21.11 +22 54 06.1          20.7 VqEG078734
         K23G01G KC2023 04 14.29899114 31 06.48 +22 50 47.3          20.8 VuEG078H21
         K23G01G KC2023 04 14.30178914 31 05.63 +22 50 34.7          20.4 VuEG078H21
         K23G01G KC2023 04 14.30458814 31 04.75 +22 50 22.4          20.5 VuEG078H21
         K23G01G KC2023 04 14.30738614 31 03.90 +22 50 10.1          20.6 VuEG078H21
         K23G01G 1C2023 04 14.38268614 30 43.002+22 44 45.96         20.52GVEG078G96
         K23G01G 1C2023 04 14.38787514 30 41.382+22 44 22.74         20.52GVEG078G96
         K23G01G 1C2023 04 14.39307214 30 39.751+22 43 58.94         20.52GVEG078G96
         K23G01G 1C2023 04 14.39825814 30 38.113+22 43 35.80         20.97GVEG078G96
    
    Observer details:
    734 Farpoint Observatory, Eskridge.  Observers D. Cromer, G. Hug, D. Goodin,
        R. Valentine.  Measurer D. Cromer.  0.70-m f/3.0 reflector + CCD.
    G96 Mt. Lemmon Survey.  Observers K. W. Wierzchos, J. K. Hogan.  Measurers E.
        J. Christensen, D. Fay, J. B. Fazekas, D. C. Fuls, A. R. Gibbs, A. D.
        Grauer, H. Groeller, J. K. Hogan, R. A. Kowalski, S. M. Larson, G. J.
        Leonard, D. Rankin, R. L. Seaman, A. Serrano, F. C. Shelly, K. W.
        Wierzchos.  1.5-m reflector + 10K CCD.
    H01 Magdalena Ridge Observatory, Socorro.  Observers W. H. Ryan, E. V. Ryan.
        Measurer W. H. Ryan.  2.4-m f/8.9 Ritchey-Chretien + CCD.
    H21 Astronomical Research Observatory, Westfield.  Observer R. Holmes.
        Measurers T. Linder, R. Holmes, L. Horn.  0.76-m f/3.0 astrograph + CCD.
    H36 Sandlot Observatory, Scranton.  Observer G. Hug.  0.56-m f/4.8 .56 meter
        reflector + CCD.
    I52 Steward Observatory, Mt. Lemmon Station.  Observers R. A. Kowalski, J. B.
        Fazekas.  Measurers E. J. Christensen, D. Fay, J. B. Fazekas, D. C. Fuls,
        A. R. Gibbs, A. D. Grauer, H. Groeller, J. K. Hogan, R. A. Kowalski, S. M.
        Larson, G. J. Leonard, D. Rankin, R. L. Seaman, A. Serrano, F. C. Shelly,
        K. W. Wierzchos.  1.0-m prime focus + CCD.
    
    Orbital elements:
    2023 GG1                                                 Earth MOID = 0.0299 AU
    Epoch 2023 Feb. 25.0 TT = JDT 2460000.5                 Veres                   
    M 266.99925              (2000.0)            P               Q                  
    n   0.78556714     Peri.  246.89146     +0.14068870     +0.97834856             
    a   1.1632700      Node    32.36746     -0.77254155     +0.20436653             
    e   0.1935373      Incl.   16.47155     -0.61918191     -0.03268676             
    P   1.25           H   24.77          G   0.15           U   7                  
    Residuals in seconds of arc
    230412 G96  0.3-  0.1-    230413 H36 (1.9-  0.8+)   230414 734 (1.2-  0.2+)
    230412 G96  0.1-  0.1-    230413 H21  0.1-  0.1-    230414 734  0.3+  0.6+
    230412 G96  0.5+  0.0     230413 H36  1.7-  0.2+    230414 734  0.3-  0.0
    230412 G96  0.4+  0.2+    230413 H21  0.4-  0.2+    230414 H21  0.2+  0.1-
    230412 I52  0.1+  0.2-    230413 H21  1.0-  0.0     230414 H21  0.4+  0.2-
    230412 I52  0.5+  0.3-    230413 I52 (0.3-  1.8+)   230414 H21  0.1+  0.0
    230412 I52  0.0   0.1+    230413 I52  0.2+  0.6+    230414 H21  0.2+  0.1+
    230412 I52  0.4-  0.0     230413 H36  1.4-  0.2+    230414 G96  0.0   0.3-
    230412 H01  0.0   0.0     230413 I52  0.9+  0.1+    230414 G96  0.0   0.1+
    230412 H01  0.1-  0.1+    230414 I52  0.1-  0.6-    230414 G96  0.1-  0.0
    230412 H01  0.1-  0.1-    230414 I52  0.0   0.2+    230414 G96  0.3-  0.5+
    230412 H01  0.1-  0.1+    230414 I52  0.4+  0.3-
    
    Ephemeris:
    2023 GG1                 a,e,i = 1.16, 0.19, 16                  q = 0.9381
    Date    TT    R. A. (2000) Decl.     Delta      r    Elong.  Phase     V
    2023 03 15    14 59 02.5 +30 41 48   0.2615  1.1631   124.7    44.7    23.9
    ...
    2023 03 30    15 01 10.7 +30 22 40   0.1687  1.1162   130.9    42.5    22.8
    ...
    2023 04 07    14 52 27.0 +28 19 47   0.1211  1.0911   136.0    39.6    21.9
    ...
    2023 04 13    14 36 27.3 +24 18 10   0.08677 1.0725   142.4    34.7    21.0
    2023 04 14    14 32 25.6 +23 12 56   0.08125 1.0694   143.9    33.5    20.9
    2023 04 15    14 27 50.6 +21 56 36   0.07580 1.0664   145.6    32.1    20.7
    ...
    2023 04 21    13 41 32.9 +07 16 33   0.04615 1.0484   160.9    18.2    19.1
    ...
    2023 04 29    10 25 31.3 -44 48 52   0.03486 1.0255   121.6    56.8    19.6
    ...
    2023 05 14    05 17 09.4 -51 12 24   0.1030  0.9873    74.1   100.1    23.4
    
    M. P. C. Staff               (C) Copyright 2023 MPC           M.P.E.C. 2023-G78
    


    Read MPEC 2023-G77 Read MPEC 2023-G79


    MPEC number:

    Enter an MPEC number in one of the following forms:

    • 1997-B01 (the full form)
    • J97B01 (the packed version of the full form)
    • B01 (the abbreviated form)